Overview Statistics Trail Chart Weather Telemetry Raw packets
 

This is the latest recevied weather packets stored in our database for station/object S56VIL-11. If no packets are shown the sender has not sent any weather packets the latest 10 day(s).

<< 3 4 5 6 7 8 9 >>
Time Temp. Humidity Pressure Rain* Wind** Luminosity Snow
1788515739 33.33° C 54% 1034.3 hPa - - - -
1788514841 32.78° C 52% 1034.5 hPa - - - -
1788513939 32.78° C 53% 1034.4 hPa - - - -
1788513039 31.11° C 54% 1034.5 hPa - - - -
1788512139 30.56° C 53% 1034.5 hPa - - - -
1788511239 30° C 54% 1034.5 hPa - - - -
1788510339 28.33° C 54% 1034.4 hPa - - - -
1788509439 25° C 56% 1034.3 hPa - - - -
1788508539 23.33° C 56% 1034.2 hPa - - - -
1788507639 22.78° C 57% 1034.3 hPa - - - -
1788506739 22.22° C 57% 1034.2 hPa - - - -
1788505839 21.67° C 57% 1034.3 hPa - - - -
1788504939 21.11° C 58% 1034.3 hPa - - - -
1788504039 20.56° C 58% 1034.1 hPa - - - -
1788503138 21.11° C 58% 1034 hPa - - - -
1788502238 21.11° C 58% 1034 hPa - - - -
1788501338 20° C 58% 1034 hPa - - - -
1788500438 20° C 58% 1033.8 hPa - - - -
1788499538 20.56° C 57% 1033.7 hPa - - - -
1788498638 20° C 57% 1033.6 hPa - - - -
1788497738 20° C 57% 1033.6 hPa - - - -
1788496838 19.44° C 58% 1033.6 hPa - - - -
1788495938 19.44° C 58% 1033.3 hPa - - - -
1788495038 19.44° C 58% 1033.5 hPa - - - -
1788494138 18.89° C 58% 1033.4 hPa - - - -

* Rain since midnight (hover to see other rain measurements)
** Current wind speed in m/s (hover to see current wind gust speed)